Погода в Балхаше

Хотите узнать прогноз погоды в Балхаше? Тогда Вам сюда: Погода в Балхаше

Поиск расширенной информации на нашем сайте:

Полезная информация:

Новости сайта



02.01.2020
Опубликован Долгосрочный прогноз погоды по городам России и ближнего зарубежья на январь 2020 года.
Карты: Прогноз на январь и февраль 2020 года, Сравнение прогнозируемой аномалии приземной температуры воздуха на январь 2020 года по разным моделям.




Погода в Балхаше - сегодня

Время (UTC), дата Ветер
(°,м/с) 
Видим.   Явления Облачность Т
(°С)
Тd
(°С)
f(%) Тe
(°С)
Pmin
(гПа)
dP
(гПа)
Po
(мм)
O2
(г/м3)
Тmin Tmax R s Состояние
почвы
18 24.01.20 200 (Ю) 4000 м  снег  10/10 1000 м 
[Ns]
-4.5 -5.8 91 -6  1013.7  0.3  727  299    -4.7       
21 24.01.20 250 (З) 10 км  {снег}  10/10 600 м 
[St]
+0.7 -0.4 92 -3  1013.6  0.7  728  293           
00 25.01.20 250 (З) 10 км  {снег}  10/0 средняя 
[As op]
+0.3 -0.8 92 -3  1016.7  2.9  730  294           
03 25.01.20 240 (ЮЗ) 4000 м  слаб. снег  10/10 600 м 
[St]
-0.2 +0.3 100 -5  1018.5  1.7  731  295        15  равномерный
сухой снег
100% 
06 25.01.20 240 (ЮЗ) 4000 м  слаб. снег  10/10 600 м 
[Frnb|Ns]
+0 +0 100 -4  1020.3  1.7  733  295  -0.5    0.7     
09 25.01.20 250 (З) 10 км  {снег}  10/6 600 м средняя 
[St|As op]
+0.2 -0.1 98 -2  1019.7  -0.5  732  295           
12 25.01.20 290 (З) 2000 м  снег  10/10 600 м 
[Frnb|Ns]
-1.2 -1.6 97 -3  1021  733  297           
15 25.01.20 320 (СЗ) 4000 м  слаб. снег  10/10 600 м 
[Frnb|Ns]
-2.8 -3.5 95 -6  1022.7  1.4  734  299    +0.9       
18 25.01.20 270 (З) 10 км  слаб. снег  10/10 1000 м 
[Ns]
-4.5 -5.4 93 -6  1023.8  0.7  735  302    +0.9     
21 25.01.20 320 (СЗ) 10 км  {снег}  3/0 средняя 
[Ac trans]
-10.2 -13.3 78 -12  1026.2  1.4  736  309           
00 26.01.20 010 (С) 10 км  {снег}  ясно 
-14.2 -17.5 76 -14  1028.7  1.7  737  315           
03 26.01.20 тихо ()   20000 м    4/0 средняя, верхняя 
[Ac trans|Ci sp]
-21.3 -24 79 -21  1031.3  1.2  738  324        15  равномерный
сухой снег
100% 
06 26.01.20 020 (С) 20000 м    8/0 верхняя 
[Ci sp]
-17.8 -21.6 72 -20  1032.1  1.4  739  320  -21.4    0.2     
09 26.01.20 100 (В) 20000 м    3/0 средняя, верхняя 
[Ac trans|Ci sp]
-15.1 -20.2 65 -17  1030  -1.6  738  316           
12 26.01.20 060 (СВ) 10 км    9/0 средняя, верхняя 
[Ac trans|Ci sp]
-16.4 -20.6 70 -20  1029.3  -0.9  737  317           
15 26.01.20 050 (СВ) 10 км    9/0 средняя 
[Ac trans]
-16.2 -19.4 76 -20  1028.1  -1.1  736  317    -13.8       
18 26.01.20 070 (В) 10 км  слаб. снег  10/10 1000 м 
[Ns]
-10.8 -13.9 78 -13  1025  -2  735  309    -13.8       
21 26.01.20 180 (Ю) 10 км  {снег}  8/0 средняя 
[Ac trans]
-7.1 -8 93 -11  1022.1  -2.1  733  304           
00 27.01.20 170 (Ю) 10 км  {снег}  10/3 600 м средняя 
[St|Ac trans]
-7.4 -8 95 -12  1020.4  -1.7  732  304           
03 27.01.20 170 (Ю) 10 км  позёмок  10/0 средняя 
[Ac As]
-6.6 -7.4 94 -11  1020  -0.2  732  303        16  равномерный
сухой снег
100% 
06 27.01.20 180 (Ю) 4000 м  слаб. снег  10/10 1000 м 
[Ns]
-5.4 -6.4 93 -9  1018.9  -0.9  731  301  -1.6    0.0     
09 27.01.20 110 (В) 4000 м  снежные зёрна  10/10 600 м 
[St]
-2.3 -4.1 87 -7  1016.6  -1.7  730  297           
12 27.01.20 230 (ЮЗ) 2000 м  снег  10/10 1000 м 
[Ns]
-1.5 -2 96 -6  1017.1  0.6  730  296           
15 27.01.20 270 (З) 10 км  позёмок{ливн. осадки, снег}  10/10 1000 м 
[Sc]
-2.6 -4.2 89 -7  1020.4  732  298    -1       
18 27.01.20 250 (З) 10 км  позёмок{ливн. осадки, снег}  3/0 средняя 
[Ac trans]
-6 -7.9 86 -12  1023.7  2.6  734  303    -1  0.8     
Время (UTC), дата Ветер
(°,м/с) 
Видим.   Явления Облачность Т
(°С)
Тd
(°С)
f(%) Тe
(°С)
Pmin
(гПа)
dP
(гПа)
Po
(мм)
O2
(г/м3)
Тmin Tmax R s Состояние
почвы

Для получения пояснительной информации подведите курсор к названию столбца.

ПОГОДА в Балхаше - архив

Всё, что Вы хотите узнать о погоде в Балхаше - удобно и подробно!

Выберите нужную дату (начиная с 1 января 2019* года) и нажмите кнопку "Найти".
Будут отображены архивные сводки погоды по пункту Балхаш, начиная с указанной даты.


Отображать данные в формате CSV (для использования в таблицах Excel)


Внимание! Наш архив погоды предназначен исключительно для личного некоммерческого использования в познавательных целях. Если Вам необходимы официальные справки о состоянии погоды (для производственных, юридических, коммерческих и т.п. целей), обращайтесь в органы Росгидромета.

*Примечание: данная дата относится к архиву по метеостанциям СССР (Россия, СНГ, Балтия).
Архив по метеостанциям Зарубежной Европы и Азии (кроме Китая) хранится 10 дней, по другим регионам земного шара (Китай, Африка, Америка, Австралия, Океания) - 1 день.

Балхаш - район местоположения метеостанции


Название, широта, долгота, высота метеостанции:
Балхаш 46.8°ш. 75.1°д. 350 м над ур. моря [Казахстан]

Дополнительная информация

В oтличие oт бoльшинства пoгoдных сайтoв мы публикуем пoдрoбную метеoинфoрмацию в детальнoм прoфессиoнальнoм фoрмате.

Характеристики температуры и влажнoсти вoздуха измеряются на высoте 2 м в тени вдали oт зданий и деревьев.
Скoрoсть ветра измеряется на высoте 10 м (на урoвне рoста челoвека скoрoсть ветра ниже в 1.5-2 раза). Если метеoстанция нахoдится в гoрoде или в лесу, тo скoрoсть ветра занижена на 2-4 м/с пo сравнению с oткрытым местoм. Скoрoсть ветра над акватoриями крупных рек и oзёр, а также на вершинах хoлмoв на 2-5 м/с выше, чем в oбычных услoвиях.
Атмoсфернoе давление в разных тoчках местнoсти мoжет значительнo oтличаться oт давления на метеoстанции, в зависимoсти oт услoвий рельефа (при пoдъёме на 10 м давление пoнижается примернo на 1 мм рт.ст.).